AirNav   Air Wisconsin pilot careers
 
 1079 users online  

4B7 Schroon Lake Airport
Schroon Lake, New York, USA

GOING TO SCHROON LAKE?


FAA INFORMATION EFFECTIVE 19 JULY 2018

Location

FAA Identifier: 4B7
Lat/Long: 43-51-45.2862N / 073-44-25.9700W
43-51.754770N / 073-44.432833W
43.8625795 / -73.7405472
(estimated)
Elevation: 834.2 ft. / 254 m (estimated)
Variation: 15W (1985)
From city: 2 miles N of SCHROON LAKE, NY
Time zone: UTC -4 (UTC -5 during Standard Time)
Zip code: 12870

Airport Operations

Airport use: Open to the public
Activation date: 09/1966
Control tower: no
ARTCC: BOSTON CENTER
FSS: BURLINGTON FLIGHT SERVICE STATION
NOTAMs facility: BTV (NOTAM-D service available)
Attendance: UNATNDD, ALL DAYLIGHT HOURS
Wind indicator: yes
Segmented circle: no

Airport Communications

CTAF: 122.9

Nearby radio navigation aids

VOR radial/distance  VOR name  Freq  Var
GFLr004/31.8GLENS FALLS VORTAC110.2014W
SLKr161/37.2SARANAC LAKE VOR/DME109.2014W
RUTr315/39.8RUTLAND VOR/DME111.0015W

 
NDB name  Hdg/Dist  Freq  Var  ID
SMUTO300/35.222115WDYO -.. -.-- ---

Airport Services

Parking: tiedowns
Airframe service: NONE
Powerplant service: NONE
Bottled oxygen: NONE
Bulk oxygen: NONE

Runway Information

Runway 16/34

Dimensions: 3000 x 60 ft. / 914 x 18 m
Surface: asphalt, in good condition
Weight bearing capacity: 
Single wheel: 13.0
RUNWAY 16  RUNWAY 34
Traffic pattern: leftleft
Displaced threshold: 100 ft.no
Markings: basic, in fair conditionbasic, in fair condition
Runway end identifier lights: nono
Obstructions: 15 ft. road, 200 ft. from runway
RY 16 15 FT ROAD PARALLEL TO RY 118 FT RT. 42 FT TREE 163 FT FM RY 98 FT LT.
80 ft. trees, 285 ft. from runway, 81 ft. right of centerline, 1:1 slope to clear
RY 34 66 FT TREE 115 FT FM RY END 123 FT RT. 49 FT TREE O FT FM RY 118 FT LT. 60 FT TREE 87 FT FM RY 125 FT LT. 17 FT TREE 116 FT FM RY 8 FT LT.

Airport Ownership and Management from official FAA records

Ownership: Publicly-owned
Owner: TOWN OF SCHROON LAKE
SCHROON LAKE, NY 12870
Phone 518-532-7737
Manager: TOWN SUPERVISOR
C/O TOWN OF SCHROON LAKE
SCHROON LAKE, NY 12870
Phone 518-532-7737
FOR SVC CALL MGR PHONE 518-532-7737 OR 532-7878.

Airport Operational Statistics

Aircraft based on the field: 1
Single engine airplanes: 1
    
Aircraft operations: avg 67/month *
75% local general aviation
25% transient general aviation
* for 12-month period ending 12 September 2014

Additional Remarks

DEBRIS FM ADJACENT LAND FILL IS OCCASIONALLY BLOWN ONTO AND ACROSS RY.
TREES PENETRATE TRANSITION SFC BOTH SIDES;ROCK LEDGE PENETRATES TRANSITION SFC ON RIGHT SIDE
RECOMMENDED LDG RY 16, TKOF RY 34.
25 FT DROPOFF 30 FT FM RY 34 END.

Instrument Procedures

There are no published instrument procedures at 4B7.

Some nearby airports with instrument procedures:

4B6 - Ticonderoga Municipal Airport (14 nm E)
KLKP - Lake Placid Airport (26 nm N)
KGFL - Floyd Bennett Memorial Airport (32 nm S)
KSLK - Adirondack Regional Airport (37 nm NW)
KRUT - Rutland - Southern Vermont Regional Airport (40 nm SE)
 
Loc | Ops | Rwys | IFR | FBO | Links
Com | Nav | Svcs | Stats | Notes


 
Area around 4B7 (Schroon Lake Airport)
 
Road maps at: MapQuest Bing Google
 
Aerial photo
WARNING: Photo may not be current or correct
Aerial photo of 4B7 (Schroon Lake Airport)
Do you have a better or more recent aerial photo of Schroon Lake Airport that you would like to share? If so, please send us your photo.

 
Sectional chart

 
Airport distance calculator
Flying to Schroon Lake Airport? Find the distance to fly.

From to 4B7

Sunrise and sunset
Times for 22-Jul-2018
 Local
(UTC-4)
 Zulu
(UTC)
Morning civil twilight05:0009:00
Sunrise05:3409:34
Sunset20:2900:29
Evening civil twilight21:0301:03

Current date and time
Zulu (UTC)  23-Jul-2018 01:19:16
Local (UTC-4)  22-Jul-2018 21:19:16
 
METAR
K6B0 
29nm E 
230055Z AUTO 16005KT 10SM CLR 24/19 A3007 RMK AO2 T02350187
KGFL 
32nm S 
230053Z AUTO 16011KT 10SM CLR 26/19 A3004 RMK AO2 SLP172 T02610194
KSLK 
38nm NW 
230051Z AUTO 17007KT 10SM CLR 23/18 A3006 RMK AO2 SLP169 T02330178
KRUT 
40nm SE 
230056Z AUTO 15009KT 10SM CLR 23/20 A3010 RMK AO2 SLP205 T02280200 $
KBTV 
44nm NE 
230054Z 11008KT 10SM FEW055 FEW070 BKN090 25/19 A3006 RMK AO2 SLP177 T02500189
KPBG 
49nm N 
230053Z AUTO 16005KT 10SM CLR 24/19 A3004 RMK AO2 SLP172 T02440194
TAF
KGFL 
32nm S 
222100Z 2221/2318 18010KT P6SM VCSH FEW035 BKN045 FM230300 14004KT P6SM OVC025 FM230800 09002KT 5SM BR VCSH OVC015 FM231500 15007KT P6SM VCSH OVC025
KSLK 
38nm NW 
221740Z 2218/2318 14012G24KT P6SM SCT025 TEMPO 2218/2222 -SHRA BKN025 FM230000 14010KT P6SM BKN035 FM231500 17012KT P6SM BKN030
KRUT 
40nm SE 
221740Z 2218/2318 13010G20KT P6SM VCSH OVC010 FM222200 14012G22KT P6SM VCSH BKN030 FM230400 13010KT P6SM BKN030 FM230800 13010KT P6SM BKN020 FM231500 15012KT P6SM BKN035
NOTAMs
Click for the latest NOTAMs
NOTAMs are issued by the DoD/FAA and will open in a separate window not controlled by AirNav.

 

 
 

Would you like to see your business listed on this page?

 If your business provides an interesting product or service to pilots, flight crews, aircraft, or users of the Schroon Lake Airport, you should consider listing it here.  To start the listing process, click on the button below
 
Add a business
 

Other Pages about Schroon Lake Airport

Update a link
 
Copyright © AirNav, LLC. All rights reserved. Privacy Policy  Contact